TimeCDT,TemperatureF,Dew PointF,Humidity,Sea Level PressureIn,VisibilityMPH,Wind Direction,Wind SpeedMPH,Gust SpeedMPH,PrecipitationIn,Events,Conditions,WindDirDegrees,DateUTC
12:53 AM,66.9,48.9,52,29.91,10.0,SW,8.1,-,N/A,,Clear,220,2012-11-02 05:53:00
1:53 AM,64.0,48.9,58,29.91,10.0,SW,9.2,-,N/A,,Clear,230,2012-11-02 06:53:00
2:53 AM,64.0,48.0,56,29.91,10.0,SSW,9.2,-,N/A,,Clear,210,2012-11-02 07:53:00
3:53 AM,64.9,48.9,56,29.91,10.0,SW,11.5,-,N/A,,Clear,220,2012-11-02 08:53:00
4:53 AM,60.1,48.9,67,29.92,10.0,SSW,9.2,-,N/A,,Clear,210,2012-11-02 09:53:00
5:53 AM,57.9,48.9,72,29.92,10.0,SSW,10.4,-,N/A,,Clear,200,2012-11-02 10:53:00
6:53 AM,59.0,48.9,69,29.94,10.0,SW,6.9,-,N/A,,Clear,220,2012-11-02 11:53:00
7:53 AM,55.9,48.9,77,29.95,10.0,SSW,6.9,-,N/A,,Partly Cloudy,210,2012-11-02 12:53:00
8:53 AM,62.1,52.0,70,29.97,10.0,SSW,5.8,-,N/A,,Partly Cloudy,200,2012-11-02 13:53:00
9:53 AM,70.0,55.9,61,29.98,10.0,SSW,10.4,-,N/A,,Partly Cloudy,210,2012-11-02 14:53:00
10:53 AM,75.9,57.0,52,29.98,10.0,SW,10.4,-,N/A,,Partly Cloudy,220,2012-11-02 15:53:00
11:53 AM,81.0,57.9,45,29.98,10.0,SW,12.7,-,N/A,,Partly Cloudy,230,2012-11-02 16:53:00
12:53 PM,84.9,55.9,37,29.95,10.0,SSW,17.3,24.2,N/A,,Partly Cloudy,210,2012-11-02 17:53:00
1:53 PM,86.0,55.0,35,29.92,10.0,SSW,12.7,20.7,N/A,,Scattered Clouds,200,2012-11-02 18:53:00
2:53 PM,87.1,51.1,29,29.89,10.0,SSW,12.7,21.9,N/A,,Scattered Clouds,210,2012-11-02 19:53:00
3:53 PM,87.1,50.0,28,29.88,10.0,South,13.8,-,N/A,,Scattered Clouds,180,2012-11-02 20:53:00
4:53 PM,86.0,46.0,25,29.87,10.0,South,13.8,-,N/A,,Clear,180,2012-11-02 21:53:00
5:53 PM,84.0,42.1,23,29.87,10.0,South,12.7,-,N/A,,Clear,180,2012-11-02 22:53:00
6:53 PM,79.0,46.0,31,29.87,10.0,South,9.2,-,N/A,,Clear,170,2012-11-02 23:53:00
7:53 PM,75.9,46.9,36,29.89,10.0,SSE,10.4,-,N/A,,Clear,160,2012-11-03 00:53:00
8:53 PM,75.0,51.1,43,29.90,10.0,South,11.5,-,N/A,,Clear,170,2012-11-03 01:53:00
9:53 PM,73.9,54.0,50,29.92,10.0,South,10.4,-,N/A,,Clear,180,2012-11-03 02:53:00
10:53 PM,71.1,55.0,57,29.92,10.0,South,9.2,-,N/A,,Clear,180,2012-11-03 03:53:00
11:53 PM,71.1,55.9,59,29.92,10.0,South,11.5,-,N/A,,Clear,180,2012-11-03 04:53:00